Regional Weather Roundup
Issued by NWS

Home | Current Version | Previous Version | Text Only | Print | Product List | Glossary Off
Versions: 1 2 3 4 5 6 7 8 9 10 11 12 13 14 15 16 17 18 19 20 21 22 23 24 25 26 27 28 29 30 31 32 33 34 35 36 37 38 39 40 41 42 43 44 45 46 47 48 49 50

000
ASUS45 KCYS 010910
RWRWY

WYOMING REGIONAL WEATHER ROUNDUP
NATIONAL WEATHER SERVICE CHEYENNE WY
300 AM MDT FRI AUG 01 2014

NOTE:  "FAIR" INDICATES FEW OR NO CLOUDS BELOW 12,000 FEET
WITH NO SIGNIFICANT WEATHER AND/OR OBSTRUCTIONS TO VISIBILITY.

WYZ001-011000-
YELLOWSTONE NATIONAL PARK

CITY           SKY/WX    TMP DP  RH WIND       PRES   REMARKS
LK YELLOWSTONE   N/A     41  38  89 CALM      30.43S
W YELLOWSTONE  NOT AVBL

$$
WYZ002>013-054>058-071-098>099-011000-
NORTHERN WYOMING

CITY           SKY/WX    TMP DP  RH WIND       PRES   REMARKS
JACKSON        CLOUDY    52  43  71 N6        30.32R
CODY           MOCLDY    64  43  45 SW5       30.21S
GREYBULL       CLEAR     65  40  39 W3        30.12R
WORLAND        PTCLDY    60  42  51 SW7       30.13S
SHERIDAN       CLEAR     58  42  55 SW7       30.11R
BUFFALO        CLEAR     65  35  33 W8        30.18F
GILLETTE       CLEAR     64  42  44 S14       30.14F
HULETT         FAIR      72  43  35 MISG      30.15
NEWCASTLE      FAIR      61  43  51 CALM      30.18

$$
WYZ014>020-022>026-101>103-011000-
CENTRAL WYOMING

CITY           SKY/WX    TMP DP  RH WIND       PRES   REMARKS
BIG PINEY      PTCLDY    48  44  86 CALM      30.34S
PINEDALE       CLOUDY    52  43  71 W6        30.35S
DUBOIS         FAIR      48  37  66 NW10      30.35S
LANDER         CLEAR     62  35  36 W14       30.22S
RIVERTON       PTCLDY    57  43  59 NW7       30.23R
CASPER         CLEAR     53  38  56 NE3       30.23R
DOUGLAS        CLEAR     54  44  69 SE7       30.22F

$$
WYZ021-027>030-104>119-011000-
SOUTHERN WYOMING

CITY           SKY/WX    TMP DP  RH WIND       PRES   REMARKS
EVANSTON       PTCLDY    58  41  53 CALM      30.32S
KEMMERER       SUNNY     50  39  66 N14       30.34S
FORT BRIDGER   FAIR      58  44  58 W5        30.35S
ROCK SPRINGS   PTCLDY    60  34  37 N5        30.30S
DIXON          FAIR      59  39  47 E9        30.30S
RAWLINS        CLEAR     52  42  69 NE9       30.32S
SARATOGA       FAIR      50  41  71 CALM      30.34S
LARAMIE        PTCLDY    48  43  82 E5        30.36S
CHEYENNE       CLEAR     54  48  80 SE3       30.30F
TORRINGTON     CLEAR     54  47  77 NE9       30.18F
PINE BLUFFS    FAIR      52  50  93 CALM      30.26S

$$



USA.gov is the U.S. government's official web portal to all federal, state and local government web resources and services.